[[{"header":{"parameterUnit":"m.s-1","parameterCategory":1,"la1":30.2991,"la2":30.254,"lo1":-89.0895,"lo2":-89.0444,"dy":0.0017,"dx":0.0017,"nx":28,"ny":28,"refTime":"2024-07-14T09:00:00:Z","depth":0,"parameterNumber":2,"parameterNumberName":"U-component_of_WINDS"},"data":[0,0,0,0,0,0,0,0,0,0,0,0,0,0,0,0,0,0,0,0,0,0,0,0,0,0,0,0,0,0,0,0,0,0,0,0,0,0,0,0,0,0,0,0,0,0,0,0,0,0,0,0,0,0,0,0,0,0,2.4751,2.4752,0,2.4831,2.4832,2.4833,2.4772,2.477,2.4767,2.4765,2.4846,2.4851,2.4855,0,0,0,0,0,0,0,0,0,0,0,0,0,2.4543,2.4547,2.4751,2.4752,2.4753,2.4831,2.4832,2.4833,2.4773,2.477,2.4766,2.4763,2.4845,2.485,2.4856,0,0,0,0,0,0,0,0,0,0,0,0,0,2.4629,2.4548,2.4751,2.4732,2.4731,2.4831,2.4832,2.4834,2.4774,2.477,2.4766,2.4762,2.4843,2.4849,2.4856,2.4978,0,0,2.4878,2.4881,0,0,0,0,0,0,0,0,2.4624,2.4637,2.4734,2.4734,2.4733,2.4788,2.4789,2.4882,2.4775,2.4758,2.4765,2.476,2.483,2.4838,2.4861,2.4982,2.4985,2.4878,2.4882,2.4885,2.4887,0,0,0,0,0,0,0,2.4618,2.4633,2.4783,2.4735,2.4735,2.4719,2.4727,2.4806,2.4815,2.4759,2.4754,2.4765,2.4829,2.4855,2.4863,2.4987,2.4878,2.4884,2.4888,2.4891,2.5209,2.5213,0,0,0,0,0,0,2.4614,2.4628,2.478,2.4785,2.4668,2.4726,2.4735,2.4774,2.4814,2.4816,2.4768,2.4762,2.4845,2.4855,2.4865,2.5009,2.4885,2.4892,2.4896,2.5205,2.521,2.5214,0,0,0,0,0,0,2.461,2.4629,2.4777,2.4706,2.4723,2.4734,2.4778,2.4778,2.4804,2.4821,2.4822,2.4793,2.4842,2.4856,2.495,2.5011,2.4895,2.4901,2.5199,2.5206,2.5212,2.5298,0,0,0,0,0,0,2.4605,2.4627,2.4674,2.4707,2.4727,2.4861,2.4782,2.4782,2.4816,2.4808,2.4845,2.4847,2.484,2.494,2.4957,2.5018,2.4907,2.5194,2.5202,2.521,2.529,2.5306,2.5321,0,0,0,0,0,2.4597,2.4696,2.4677,2.4696,2.4786,2.4865,2.4876,2.4866,2.4821,2.4868,2.4879,2.4846,2.5002,2.495,2.4969,2.5033,2.519,2.52,2.5209,2.5283,2.5303,2.532,0,0,0,0,0,0,2.467,2.47,2.4679,2.4792,2.4826,2.4854,2.4913,2.4889,2.4937,2.4928,2.4913,2.4922,2.5021,2.5036,2.4979,2.5152,2.5089,2.5102,2.5138,2.5157,2.5173,2.5166,2.4912,0,0,0,0,0,2.4699,2.4761,2.4783,2.488,2.4898,2.4903,2.4937,2.4926,2.4961,2.4975,2.4993,2.5028,2.5084,2.5122,2.5175,2.5292,2.5298,2.5345,2.5361,2.5373,2.5385,2.5446,2.5466,2.5246,2.5246,2.5246,0,0,2.476,2.4783,2.4823,2.4895,2.492,2.4983,2.4916,2.4986,2.5032,2.4986,2.5075,2.509,2.5128,2.5233,2.5281,2.5249,2.5447,2.5386,2.5396,2.54,2.5458,2.5479,2.5497,2.5253,2.5251,2.525,0,0,2.4902,2.4927,2.5009,2.5036,2.5075,2.5078,2.5097,2.5129,2.5137,2.5227,2.5193,2.5248,2.5346,2.5374,2.5401,2.5552,2.5523,2.557,2.5651,2.571,2.5727,2.5743,2.5795,2.5814,2.5582,2.5582,2.5582,0,2.4972,2.5066,2.5055,2.5127,2.5158,2.512,2.5202,2.5228,2.5283,2.5305,2.527,2.5391,2.5414,2.5524,2.5561,2.5585,2.5606,2.5565,2.5726,2.5741,2.5755,2.5805,2.5825,2.5587,2.5587,2.5586,2.5585,0,2.515,2.5216,2.5277,2.533,2.5369,2.5446,2.5445,2.5486,2.5472,2.5477,2.5568,2.5594,2.5651,2.5677,2.5664,2.5785,2.5764,2.5728,2.5664,2.5782,2.5828,2.5847,2.5595,2.5593,2.5591,2.559,0,0,2.534,2.5385,2.5408,2.5431,2.5471,2.5521,2.5595,2.5651,2.5685,2.5724,2.5785,2.5868,2.5834,2.5865,2.5855,2.5907,2.6023,2.5864,2.5865,2.5891,2.6156,2.6182,2.6204,2.6005,2.6008,2.6011,2.6152,0,2.5483,2.5613,2.5604,2.5726,2.5785,2.5749,2.5813,2.5844,2.5852,2.5902,2.591,2.5969,2.592,2.5938,2.5989,2.5999,2.6076,2.5988,2.606,2.6063,2.605,2.6229,2.6257,2.6389,2.617,2.6173,2.6176,0,2.5667,2.5712,2.584,2.5869,2.5893,2.5952,2.6001,2.6051,2.6084,2.6086,2.612,2.61,2.6174,2.6109,2.621,2.615,2.6179,2.6188,2.6193,2.6198,2.6125,2.6237,2.6431,2.6451,2.6204,2.6202,2.62,0,2.5791,2.5883,2.5971,2.5992,2.6029,2.607,2.6087,2.6117,2.6151,2.6194,2.6215,2.6266,2.6294,2.6333,2.6328,2.6281,2.643,2.6365,2.6432,2.6432,2.6464,2.6462,2.6663,2.6485,2.6485,2.6484,2.6484,0,2.595,2.603,2.6027,2.6081,2.6168,2.6156,2.6243,2.6255,2.6282,2.6336,2.6308,2.636,2.6351,2.6402,2.6399,2.6481,2.6495,2.6497,2.6495,2.6499,2.6498,2.6516,2.6506,2.649,2.6488,2.6487,2.6486,0,2.6103,2.6105,2.6198,2.6225,2.6233,2.6296,2.6318,2.6369,2.6373,2.6443,2.6459,2.6466,2.6525,2.6523,2.6591,2.6588,2.669,2.6678,2.6678,2.6675,2.6742,2.6735,2.6961,2.6989,2.6794,2.6796,2.6798,0,2.6204,2.6264,2.6297,2.6332,2.6352,2.6408,2.6442,2.6432,2.6468,2.651,2.6555,2.6612,2.6656,2.6753,2.6763,2.6814,2.6802,2.6878,2.681,2.6811,2.6801,2.6797,2.6802,2.6891,2.6893,2.6895,2.6896,0,2.6383,2.638,2.643,2.648,2.6521,2.6559,2.6595,2.6625,2.6619,2.6661,2.6721,2.6755,2.6823,2.6879,2.6928,2.6945,2.692,2.6918,2.6936,2.694,2.6937,2.6938,2.6713,2.6913,2.6911,2.691,2.6909,2.6908,2.6512,2.6563,2.6594,2.6649,2.6675,2.6708,2.6756,2.6767,2.6817,2.6871,2.6862,2.6929,2.696,2.7022,2.7044,2.7095,2.7068,2.7095,2.7101,2.7107,2.7114,2.693,2.7104,2.7104,2.7103,2.7103,2.7102,0,2.6688,2.6705,2.6757,2.6807,2.6851,2.6823,2.6861,2.6899,2.6958,2.6988,2.7033,2.7101,2.7154,2.7169,2.722,2.7259,2.7248,2.7272,2.7269,2.7273,2.7136,2.7114,2.728,2.728,2.728,2.728,2.728,2.728,2.6784,2.6868,2.6869,2.6965,2.6982,2.7047,2.707,2.71,2.7125,2.7202,2.7246,2.7255,2.7279,2.7332,2.738,2.7382,2.7402,2.7431,2.7429,2.73,2.7283,2.7266,2.7245,2.7435,2.7436,2.7561,2.7562,2.7563]},{"header":{"parameterUnit":"m.s-1","parameterCategory":1,"la1":30.2991,"la2":30.254,"lo1":-89.0895,"lo2":-89.0444,"dy":0.0017,"dx":0.0017,"nx":28,"ny":28,"refTime":"2024-07-14T09:00:00:Z","depth":0,"parameterNumber":3,"parameterNumberName":"V-component_of_WINDS"},"data":[0,0,0,0,0,0,0,0,0,0,0,0,0,0,0,0,0,0,0,0,0,0,0,0,0,0,0,0,0,0,0,0,0,0,0,0,0,0,0,0,0,0,0,0,0,0,0,0,0,0,0,0,0,0,0,0,0,0,1.1644,1.1645,0,1.1716,1.1717,1.1717,1.1688,1.1686,1.1685,1.1683,1.1756,1.176,1.1763,0,0,0,0,0,0,0,0,0,0,0,0,0,1.148,1.1483,1.1644,1.1645,1.1646,1.1716,1.1717,1.1718,1.1688,1.1686,1.1684,1.1682,1.1755,1.1759,1.1764,0,0,0,0,0,0,0,0,0,0,0,0,0,1.1551,1.1484,1.1644,1.1639,1.164,1.1716,1.1717,1.1718,1.1689,1.1686,1.1684,1.1681,1.1754,1.1759,1.1764,1.1848,0,0,1.1781,1.1783,0,0,0,0,0,0,0,0,1.1547,1.1557,1.1639,1.164,1.164,1.169,1.1686,1.1762,1.1689,1.167,1.1683,1.168,1.1736,1.1743,1.1762,1.1852,1.1855,1.1781,1.1784,1.1787,1.1788,0,0,0,0,0,0,0,1.1542,1.1554,1.1672,1.164,1.1641,1.1633,1.1641,1.17,1.1717,1.1672,1.167,1.1679,1.1736,1.1757,1.1764,1.1856,1.1781,1.1786,1.1789,1.1791,1.2016,1.2019,0,0,0,0,0,0,1.1537,1.155,1.167,1.1674,1.1586,1.1638,1.1647,1.1677,1.1716,1.172,1.1681,1.1677,1.1749,1.1758,1.1766,1.1866,1.1787,1.1791,1.1795,1.2014,1.2017,1.202,0,0,0,0,0,0,1.1534,1.1548,1.1667,1.1612,1.1626,1.1644,1.1678,1.168,1.17,1.1723,1.1726,1.1699,1.1748,1.1759,1.1828,1.1869,1.1794,1.1799,1.201,1.2015,1.2019,1.2068,0,0,0,0,0,0,1.1529,1.1547,1.158,1.1613,1.1629,1.1728,1.1681,1.1683,1.171,1.1706,1.1741,1.1744,1.1746,1.182,1.1833,1.1875,1.1803,1.2007,1.2012,1.2017,1.2063,1.2074,1.2083,0,0,0,0,0,1.1523,1.1591,1.1582,1.1596,1.1671,1.1731,1.174,1.1742,1.1713,1.1746,1.176,1.1743,1.1862,1.1827,1.1842,1.1886,1.2004,1.2011,1.2017,1.2059,1.2072,1.2082,0,0,0,0,0,0,1.1563,1.1596,1.1585,1.1666,1.1696,1.1726,1.1767,1.1755,1.1794,1.1788,1.1788,1.1796,1.1867,1.1883,1.1844,1.1968,1.1929,1.1938,1.1955,1.1968,1.1977,1.1972,1.1807,0,0,0,0,0,1.1581,1.1628,1.1653,1.1722,1.1737,1.175,1.1776,1.1774,1.1805,1.1818,1.1837,1.1867,1.1911,1.194,1.1982,1.2065,1.2071,1.2102,1.2111,1.2119,1.2128,1.2171,1.2185,1.2041,1.2041,1.2041,0,0,1.162,1.1643,1.1672,1.1731,1.1753,1.1801,1.1761,1.1813,1.1848,1.1825,1.1892,1.1907,1.194,1.2016,1.2051,1.2032,1.2169,1.2127,1.2133,1.2138,1.2179,1.2193,1.2205,1.2045,1.2044,1.2044,0,0,1.1713,1.1736,1.1795,1.1818,1.1853,1.1861,1.1875,1.1906,1.1915,1.1981,1.1965,1.2006,1.2082,1.2107,1.2129,1.223,1.2215,1.2243,1.2295,1.2337,1.2349,1.2359,1.2394,1.2407,1.2251,1.2251,1.2251,0,1.1757,1.1828,1.1827,1.188,1.1906,1.1887,1.1946,1.1969,1.2016,1.2033,1.2011,1.2105,1.2126,1.2207,1.2232,1.225,1.2266,1.224,1.2347,1.2357,1.2366,1.24,1.2414,1.2254,1.2254,1.2254,1.2254,0,1.1879,1.1928,1.1971,1.2017,1.2047,1.2103,1.211,1.2141,1.2135,1.2145,1.2212,1.2236,1.2282,1.2301,1.2297,1.2381,1.2368,1.2347,1.2307,1.2383,1.2415,1.2428,1.2259,1.2258,1.2257,1.2256,0,0,1.2001,1.2044,1.206,1.2079,1.2116,1.2154,1.2208,1.2252,1.2278,1.2311,1.2356,1.242,1.2399,1.2425,1.2423,1.246,1.2537,1.2434,1.2434,1.2452,1.263,1.2647,1.2662,1.2527,1.253,1.2532,1.2628,0,1.2098,1.2194,1.2193,1.2282,1.2327,1.2308,1.2355,1.2382,1.2392,1.2431,1.2441,1.2486,1.2457,1.2471,1.2507,1.252,1.2573,1.2513,1.2569,1.2571,1.2562,1.2679,1.2696,1.2786,1.264,1.2642,1.2644,0,1.2224,1.2259,1.2352,1.238,1.2399,1.2442,1.2481,1.2519,1.2549,1.2553,1.258,1.2572,1.2626,1.2584,1.2659,1.2618,1.2641,1.265,1.2653,1.2659,1.2613,1.2688,1.2814,1.2828,1.2663,1.2662,1.266,0,1.2303,1.2375,1.2439,1.2456,1.2491,1.2521,1.2537,1.2563,1.259,1.2624,1.2641,1.2682,1.2704,1.2735,1.2738,1.2707,1.2812,1.2771,1.2817,1.2817,1.2841,1.284,1.2973,1.2855,1.2855,1.2854,1.2854,0,1.2411,1.2469,1.2475,1.2515,1.2578,1.2577,1.2639,1.2652,1.2675,1.2717,1.2703,1.2742,1.2742,1.2782,1.2784,1.2845,1.2855,1.286,1.286,1.2861,1.2861,1.2877,1.2871,1.2858,1.2857,1.2857,1.2856,0,1.2512,1.2519,1.2587,1.2614,1.2622,1.2667,1.2689,1.2727,1.2734,1.2786,1.2798,1.281,1.2856,1.2861,1.2914,1.2915,1.2989,1.2982,1.2979,1.2978,1.3024,1.302,1.3173,1.3193,1.3061,1.3063,1.3064,0,1.2581,1.2624,1.2655,1.2681,1.2699,1.2742,1.2768,1.2767,1.2795,1.2831,1.2864,1.2908,1.2943,1.3016,1.303,1.307,1.3064,1.3115,1.307,1.307,1.3065,1.3062,1.3066,1.3124,1.3125,1.3126,1.3127,0,1.2702,1.2702,1.2741,1.2781,1.2812,1.2844,1.2873,1.2895,1.2898,1.293,1.2976,1.3003,1.3057,1.3101,1.314,1.3155,1.3142,1.3141,1.3154,1.3156,1.3153,1.3155,1.3003,1.3138,1.3137,1.3136,1.3135,1.3135,1.2789,1.2826,1.2853,1.2896,1.2918,1.2945,1.2981,1.2992,1.3031,1.3075,1.3071,1.3122,1.3149,1.32,1.3218,1.3257,1.324,1.3259,1.3264,1.3268,1.3273,1.3146,1.3264,1.3264,1.3264,1.3263,1.3263,0,1.2909,1.2925,1.2964,1.3005,1.3039,1.3023,1.3053,1.3083,1.3127,1.3153,1.3188,1.324,1.3282,1.3298,1.3338,1.3367,1.3361,1.3377,1.3375,1.3379,1.3286,1.3271,1.3381,1.3381,1.3381,1.3381,1.3381,1.3381,1.2976,1.3038,1.3041,1.3113,1.3129,1.3178,1.3197,1.3222,1.3242,1.3301,1.3336,1.3346,1.3367,1.3409,1.3446,1.3449,1.3465,1.3484,1.3484,1.3397,1.3386,1.3374,1.336,1.3487,1.3487,1.3574,1.3575,1.3576]}]]